ARIANE 44LP DEB, 33541

Orbit data source: Space-Track

ARIANE 44LP DEB, 33541 is space debris in HEO originally from a launch on Sun, 11 Dec 1988 UTC launched from the French Guiana (FRGUI). Debris objects in space refer to the collection of defunct objects orbiting the Earth. Examples of debris include non-operational satellites, rocket bodies, and fragments generated from explosions, collisions, or faulty payload assembly.

Loading next visibility...
Identifier
33541, 1988-109Q
Orbit
HEO
Last TLE update
2 days ago
Origin
Manufacturer
Unknown
Mission
Spacecraft
Bus & Motor
Unknown
Mass
Unknown
Launch date (UTC)
1988-12-11 (37 years ago)
Launch vehicle
Unknown
Launch site
French Guiana (FRGUI)
Object type
Payload
Rocket body
Debris
Shape & HBR
Unknown
Radar Cross Section
Medium (>0.1 m² and <1 m²)

Expand to show TLE details & history

TLE from 2 days ago
0 ARIANE 44LP DEB
1 33541U 88109Q   25182.85635838 -.00000068  00000-0  23648-2 0  9996
2 33541   7.1850  42.7579 7101550  92.2967 271.7218  2.23957423184465
Epoch: 2025-07-01T20:33Z
TLE epoch observation values (Epoch: 2025-07-01T20:33:09.364Z)
Latitude
-6.36816°
Longitude
112.18361°
Altitude
27,708.15 km
Speed
2.69 km/s
True Right ascension
22h 42m 28s
True Declination
-6° 21' 37"
Sunlit
Object was in daylight at epoch
Visualization orbit readout
Latitude
-7.19327°
Longitude
85.38367°
Altitude
35,779.523 km
Speed
1.661 km/s
Apparent Right ascension
20h 33m 09s
Apparent Declination
-13° 31' 29"
Sunlit
Object is in daylight
Visualization observer readout
Local Sidereal Time
00:14:38
Azimuth
236.286° WSW
Elevation
15.882°
Doppler factor
1
Orbital elements
Apogee altitude
35,831.845 km
Perigee altitude
775.807 km
Semi-major axis
24,681.963 km
Eccentricity
0.71016
Inclination
7.185°
RAAN
42.7579°
Arg. of periapsis
92.2967°
True anomaly
Unknown
Mean anomaly
271.7218°
Eccentric anomaly
Unknown
Mean motion
0.55972 °/min
Orbital period
643.17 mins
BSTAR
0.0023648
Loading maneuver chart data...
Loading SW <> Apogee altitude chart data...
Loading historical data...
Loading historical data...
Loading historical data...
Loading historical data...
Loading historical data...
Loading historical data...
Loading historical data...

ARIANE 44LP DEB Visibility forecast

Observer location: undefined°, undefined°

Span
Click to sort rows by Start time (UTC) header in descending order
Start Az.
Max El. time (UTC)
Max El. Az.
Max El.
End time (UTC)
End Az.
72 mins2025-07-03 12:27:58.877Z236.273° WSW2025-07-03 12:27:58.877Z236.273° WSW15.297°2025-07-03 13:39:58.877Z242.85° WSW
432 mins2025-07-04 05:15:58.877Z218.901° SW2025-07-04 08:41:58.877Z185.473° SSW30.07°2025-07-04 12:27:58.877Z215.216° SW
|